Погода в Колянове

Россия / Ивановская область     56°56′56″N   40°58′07″E
темп.,
°C
ветер,
м/с
пор.,
м/с
влажн.,
%
обл.,
%
осадки,
мм/ч
давл.,
гПа
погр.,
м
7 мая, пт
пт700:00+10юз51086100 0.2 1006856
03:00+6юз3791100 0.3 1007224
06:00+7юз388899 0.0 1008433
09:00+10зюз4565100 0.0 1009954
12:00+12зюз574676 0.0 10102152
15:00+12зюз5846100 0.0 10112193
18:00+13зюз464624 0.0 10111121
21:00+7ююз34662 0.0 101445
8 мая, сб
сб800:00+6ю3573100 0.0 101472
03:00+6ююв3975100 0.0 1014179
06:00+7ююв41268100 0.0 1013341
09:00+12ююв71253100 0.0 10121350
12:00+10юв71466100 0.1 10101152
15:00+10ююв81671100 0.8 10071546
18:00+9ююв71686100 2.6 10051139
21:00+9ююв61492100 3.5 1004932
9 мая, вс
вс900:00+10ю51096100 0.6 1003701
03:00+6юз51288100 0.8 1005845
06:00+7з6995100 0.8 1005606
09:00+4зсз61293100 1.1 1011821
12:00+7зсз6978100 0.1 10141243
15:00+8зсз5771100 0.1 10181036
18:00+9сз376118 0.0 10201210
21:00+5зсз34790 0.0 102347
10 мая, пн
пн1000:00+3зсз22810 0.0 102528
03:00+2зсз22853 0.0 102840
06:00+5зсз12722 0.0 102972
09:00+11зюз23509 0.0 1030638
12:00+14зюз343713 0.0 10301796
15:00+16з4537100 0.0 10291921
18:00+14зюз245333 0.0 1030359
21:00+9зюз22785 0.0 103015
11 мая, вт
вт1100:00+7юз227799 0.0 103116
03:00+7юз2277100 0.0 103228
06:00+8юз2473100 0.0 1033108
09:00+15ююз235253 0.0 1033518
12:00+18ю344463 0.0 10321173
15:00+20ююз224282 0.0 10311468
18:00+19ю1255100 0.0 1030125
21:00+12ю22756 0.0 103029